Simultaneous Nadir Overpasses (SNOs) Predictions

Prediction of SNOs between LANDSAT-8 and METOP-A Satellite Orbit:

Table of predicted SNOs for the next 14.0 days since TLE Epoch: 10/19/2019
Index Date (LANDSAT-8) Time (LANDSAT-8) Lat,Lon (LANDSAT-8) SZA (LANDSAT-8 ) Date (METOP-A) Time (METOP-A) Lat,Lon (METOP-A) SZA (METOP-A ) Distance(km) Time Diff (sec)
1 10/21/2019 09:10:25 -81.48, -91.13 84.89 10/21/2019 09:09:56 -81.48, -91.10 84.90 0.55 29
2 10/21/2019 09:59:51 81.48, 76.63 95.15 10/21/2019 10:00:36 81.48, 76.61 95.16 0.62 45
3 10/24/2019 04:44:39 -81.48, -24.53 83.87 10/24/2019 04:44:19 -81.48, -24.72 83.90 3.23 20
4 10/24/2019 05:34:06 81.47, 142.81 96.11 10/24/2019 05:34:59 81.48, 142.97 96.16 2.74 53
5 10/27/2019 00:18:55 -81.47, 41.65 82.93 10/27/2019 00:18:43 -81.48, 41.64 82.93 0.87 12
6 10/27/2019 01:08:21 81.47,-150.64 97.09 10/27/2019 01:09:23 81.48,-150.68 97.12 0.74 62
7 10/29/2019 19:53:10 -81.48, 108.20 81.97 10/29/2019 19:53:06 -81.48, 108.40 81.95 3.27 4
8 10/29/2019 20:42:36 81.48, -84.11 98.05 10/29/2019 20:43:46 81.47, -83.94 98.10 2.85 70
9 11/01/2019 14:37:57 81.48, 7.08 98.94 11/01/2019 14:36:49 81.48, 7.07 98.91 0.19 68




NCC Satellite Simultaneous Nadir Overpasses (SNOs) Prediction Service
